EW7966 Weather Reports


time (UTC)temp
C
wind
direction
speed
KPH
gust
KPH
rain 1hr
cm
rain 24hr
cm
rain mn
cm
humidity
%
barometer
mb
20260508214505 16 44 4.8 17.7 0.00 0.00 0.00 44 1014.1
20260508214007 16 87 11.3 20.9 0.00 0.00 0.00 42 1014.2
20260508213006 17 33 8.0 17.7 0.00 0.00 0.00 42 1014.2
20260508213004 17 33 6.4 17.7 0.00 0.00 0.00 42 1006.4
20260508212506 17 17 4.8 30.6 0.00 0.00 0.00 39 1014.2
20260508212007 16 13 4.8 16.1 0.00 0.00 0.00 45 1014.2
20260508211507 16 31 6.4 19.3 0.00 0.00 0.00 44 1006.4
20260508211505 16 31 8.0 19.3 0.00 0.00 0.00 44 1014.2
20260508211009 16 355 11.3 19.3 0.00 0.00 0.00 45 1014.3
20260508210505 16 27 4.8 22.5 0.00 0.00 0.00 43 1014.4
20260508210006 16 51 14.5 25.7 0.00 0.00 0.00 44 1014.4
20260508210004 16 51 12.9 25.7 0.00 0.00 0.00 44 1006.6
20260508205505 16 45 14.5 25.7 0.00 0.00 0.00 44 1014.4
20260508205006 16 22 12.9 20.9 0.00 0.00 0.00 42 1014.4
20260508204505 16 9 6.4 19.3 0.00 0.00 0.00 45 1006.6
20260508204007 16 32 11.3 24.1 0.00 0.00 0.00 47 1014.5
20260508203506 16 43 11.3 27.4 0.00 0.00 0.00 44 1014.5
20260508203007 16 348 14.5 27.4 0.00 0.00 0.00 48 1014.5
20260508203004 16 348 12.9 27.4 0.00 0.00 0.00 48 1006.7
20260508202506 15 59 12.9 29.0 0.00 0.00 0.00 46 1014.5
20260508202006 16 32 17.7 29.0 0.00 0.00 0.00 48 1014.6
20260508201506 15 20 11.3 22.5 0.00 0.00 0.00 48 1014.6
20260508201504 15 20 11.3 22.5 0.00 0.00 0.00 48 1006.9
20260508200503 15 80 8.0 25.7 0.00 0.00 0.00 47 1014.8
20260508200004 15 333 6.4 25.7 0.00 0.00 0.00 45 1007.2
20260508195505 15 5 6.4 19.3 0.00 0.00 0.00 47 1015.0
20260508195006 15 12 11.3 22.5 0.00 0.00 0.00 47 1015.0
20260508194506 15 27 9.7 27.4 0.00 0.00 0.00 44 1007.4
20260508194006 15 37 11.3 25.7 0.00 0.00 0.00 47 1015.1
20260508193506 15 17 16.1 25.7 0.00 0.00 0.00 45 1015.2
20260508193006 15 324 9.7 20.9 0.00 0.00 0.00 44 1015.1
20260508193003 15 324 8.0 20.9 0.00 0.00 0.00 44 1007.4
20260508192008 15 346 8.0 22.5 0.00 0.00 0.00 46 1015.1
20260508191506 15 49 9.7 22.5 0.00 0.00 0.00 53 1015.1
20260508191006 15 360 14.5 22.5 0.00 0.00 0.00 48 1015.2
20260508190505 15 26 3.2 19.3 0.00 0.00 0.00 48 1015.2
20260508190006 15 311 8.0 19.3 0.00 0.00 0.00 47 1015.3
20260508190004 15 311 8.0 19.3 0.00 0.00 0.00 47 1007.7
20260508185007 15 21 14.5 20.9 0.00 0.00 0.00 46 1015.4
20260508184506 15 5 9.7 25.7 0.00 0.00 0.00 49 1015.4
20260508184504 15 5 8.0 25.7 0.00 0.00 0.00 49 1007.8
20260508184006 15 355 11.3 25.7 0.00 0.00 0.00 44 1015.4
20260508183458 15 19 14.5 22.5 0.00 0.00 0.00 47 1015.5
20260508183006 14 16 9.7 25.7 0.00 0.00 0.00 48 1015.4
20260508182505 14 355 4.8 25.7 0.00 0.00 0.00 49 1015.5
20260508182005 14 13 16.1 24.1 0.00 0.00 0.00 49 1015.4
20260508181505 14 63 11.3 24.1 0.00 0.00 0.00 47 1015.6
20260508181007 15 22 12.9 24.1 0.00 0.00 0.00 48 1015.6
20260508180505 15 355 4.8 20.9 0.00 0.00 0.00 50 1015.7
20260508180007 14 348 6.4 20.9 0.00 0.00 0.00 47 1015.7
20260508180004 14 348 6.4 20.9 0.00 0.00 0.00 47 1008.2
20260508175505 14 336 4.8 19.3 0.00 0.00 0.00 49 1015.7
20260508175006 13 38 9.7 20.9 0.00 0.00 0.00 48 1015.8
20260508174506 13 28 12.9 20.9 0.00 0.00 0.00 47 1008.4
20260508174007 13 31 9.7 20.9 0.00 0.00 0.00 51 1015.9
20260508173505 14 28 12.9 20.9 0.00 0.00 0.00 48 1016.0
20260508173007 13 18 8.0 22.5 0.00 0.00 0.00 50 1015.9
20260508173004 13 18 6.4 22.5 0.00 0.00 0.00 50 1008.6
20260508172505 13 360 8.0 22.5 0.00 0.00 0.00 49 1016.0
20260508172007 13 306 9.7 22.5 0.00 0.00 0.00 45 1015.9
20260508171504 13 50 4.8 11.3 0.00 0.00 0.00 47 1008.5
20260508171006 13 13 6.4 19.3 0.00 0.00 0.00 50 1015.9
20260508170505 13 5 9.7 19.3 0.00 0.00 0.00 48 1016.0
20260508170007 13 335 8.0 14.5 0.00 0.00 0.00 50 1016.1
20260508170004 13 335 6.4 14.5 0.00 0.00 0.00 50 1008.8
20260508165505 13 321 6.4 16.1 0.00 0.00 0.00 52 1016.0
20260508165006 12 304 9.7 19.3 0.00 0.00 0.00 54 1016.0
20260508164603 12 42 9.7 19.3 0.00 0.00 0.00 52 1008.7
20260508164506 12 349 11.3 19.3 0.00 0.00 0.00 51 1016.0
20260508164504 12 349 9.7 19.3 0.00 0.00 0.00 51 1008.7
20260508164006 12 311 6.4 19.3 0.00 0.00 0.00 53 1016.1
20260508163506 12 317 9.7 20.9 0.00 0.00 0.00 53 1016.1
20260508163006 12 339 11.3 24.1 0.00 0.00 0.00 54 1016.1
20260508163003 12 339 9.7 24.1 0.00 0.00 0.00 54 1008.8
20260508162506 12 350 14.5 24.1 0.00 0.00 0.00 55 1016.1
20260508162007 12 305 11.3 16.1 0.00 0.00 0.00 55 1016.1
20260508161505 11 316 6.4 17.7 0.00 0.00 0.00 58 1008.8
20260508161006 11 342 8.0 19.3 0.00 0.00 0.00 59 1016.1
20260508160505 11 324 12.9 19.3 0.00 0.00 0.00 58 1016.1
20260508160011 11 315 8.0 16.1 0.00 0.00 0.00 63 1008.7
20260508160007 11 315 8.0 16.1 0.00 0.00 0.00 63 1016.1
20260508155505 11 296 6.4 17.7 0.00 0.00 0.00 64 1016.3
20260508155007 11 312 12.9 17.7 0.00 0.00 0.00 66 1016.3
20260508154505 10 297 6.4 17.7 0.00 0.00 0.00 67 1016.2
20260508154502 10 297 4.8 17.7 0.00 0.00 0.00 67 1008.9
20260508153505 10 303 4.8 17.7 0.00 0.00 0.00 69 1016.3
20260508153007 10 294 9.7 17.7 0.00 0.00 0.00 67 1016.3
20260508153004 10 294 9.7 17.7 0.00 0.00 0.00 67 1009.0
20260508152506 10 304 8.0 17.7 0.00 0.00 0.00 70 1016.3
20260508152006 10 310 9.7 19.3 0.00 0.00 0.00 69 1016.4
20260508151510 10 319 8.0 19.3 0.00 0.00 0.00 69 1009.1
20260508151506 10 319 8.0 19.3 0.00 0.00 0.00 69 1016.4
20260508151006 10 288 9.7 20.9 0.00 0.00 0.00 71 1016.3
20260508150458 9 310 14.5 20.9 0.00 0.00 0.00 71 1016.4
20260508150011 9 227 6.4 16.1 0.00 0.00 0.00 74 1009.3
20260508150008 9 227 8.0 16.1 0.00 0.00 0.00 74 1016.5
20260508145506 9 282 6.4 16.1 0.00 0.00 0.00 75 1016.4
20260508145006 8 243 6.4 17.7 0.00 0.00 0.00 77 1016.3
20260508144504 8 290 11.3 19.3 0.00 0.00 0.00 76 1009.3
20260508144000 8 310 11.3 19.3 0.00 0.00 0.00 78 1016.5
20260508143506 7 290 12.9 20.9 0.00 0.00 0.00 80 1016.6
20260508143006 7 317 12.9 19.3 0.00 0.00 0.00 81 1009.6
20260508142505 7 284 8.0 16.1 0.00 0.00 0.00 81 1016.6
20260508142007 7 329 9.7 17.7 0.00 0.00 0.00 82 1016.7
20260508141505 7 5 9.7 19.3 0.00 0.00 0.00 84 1016.7
20260508141007 7 338 9.7 19.3 0.00 0.00 0.00 84 1016.7
20260508140506 6 319 247.8 1054.1 5.13 0.00 0.00 87
20260508140008 6 348 6.4 17.7 0.00 0.00 0.00 88 1010.1
20260508135505 6 321 8.0 17.7 0.00 0.00 0.00 88 1016.9
20260508135005 6 355 4.8 12.9 0.00 0.00 0.00 89 1016.8
20260508134505 6 355 6.4 14.5 0.00 0.00 0.00 90 1016.8
20260508134503 6 355 4.8 14.5 0.00 0.00 0.00 90 1010.1
20260508134007 5 283 8.0 14.5 0.00 0.00 0.00 90 1016.8
20260508133505 5 324 8.0 14.5 0.00 0.00 0.00 91 1016.7
20260508133006 5 355 4.8 12.9 0.00 0.00 0.00 92 1016.6
20260508133004 5 355 3.2 12.9 0.00 0.00 0.00 92 1009.9
20260508132505 5 330 6.4 12.9 0.00 0.00 0.00 92 1016.4
20260508132007 5 322 3.2 12.9 0.00 0.00 0.00 93 1016.6
20260508131505 5 328 4.8 16.1 0.00 0.00 0.00 93 1016.7
20260508130507 4 321 4.8 9.7 0.00 0.00 0.00 95 1016.5
20260508130007 4 319 4.8 9.7 0.00 0.00 0.00 95 1016.3
20260508130004 4 319 4.8 9.7 0.00 0.00 0.00 95 1009.7
20260508125507 3 5 1.6 4.8 0.00 0.00 0.00 94 1016.3
20260508125000 3 17 1.6 4.8 0.00 0.00 0.00 94 1016.0
20260508124505 3 329 1.6 3.2 0.00 0.00 0.00 94 1015.8
20260508124503 3 329 0.0 3.2 0.00 0.00 0.00 94 1009.2
20260508124006 2 329 0.0 0.0 0.00 0.00 0.00 94 1015.7
20260508123504 2 329 0.0 0.0 0.00 0.00 0.00 93 1015.7
20260508123007 2 329 0.0 0.0 0.00 0.00 0.00 93 1015.4
20260508123005 2 329 0.0 0.0 0.00 0.00 0.00 93 1008.8
20260508122505 2 329 0.0 1.6 0.00 0.00 0.00 93 1015.4
20260508122007 2 329 0.0 0.0 0.00 0.00 0.00 94 1015.2
20260508121505 2 329 0.0 1.6 0.00 0.00 0.00 93 1015.1
20260508121503 2 329 0.0 1.6 0.00 0.00 0.00 93 1008.5
20260508120507 2 329 0.0 3.2 0.00 0.00 0.00 93 1014.8
20260508120004 2 329 0.0 3.2 0.00 0.00 0.00 92 1008.2
20260508115505 2 329 0.0 3.2 0.00 0.00 0.00 93 1014.8
20260508115006 2 329 0.0 3.2 0.00 0.00 0.00 92 1014.7
20260508114506 1 329 0.0 0.0 0.00 0.00 0.00 92 1014.7
20260508114503 1 329 0.0 0.0 0.00 0.00 0.00 92 1008.1
20260508114006 1 329 0.0 0.0 0.00 0.00 0.00 91 1014.8
20260508113006 1 329 1.6 4.8 0.00 0.00 0.00 90 1014.7
20260508113004 1 329 0.0 4.8 0.00 0.00 0.00 90 1008.1
20260508112505 2 329 1.6 4.8 0.00 0.00 0.00 89 1014.6
20260508111505 2 15 1.6 12.9 0.00 0.00 0.00 88 1014.7
20260508111005 2 355 3.2 8.0 0.00 0.00 0.00 90 1014.4
20260508110006 2 206 1.6 6.4 0.00 0.00 0.00 91 1013.8
20260508110003 2 206 0.0 6.4 0.00 0.00 0.00 91 1007.3
20260508105505 2 173 4.8 6.4 0.00 0.00 0.00 91 1013.8
20260508105007 2 215 3.2 6.4 0.00 0.00 0.00 91 1013.8
20260508104505 2 215 3.2 8.0 0.00 0.00 0.00 89 1013.8
20260508104503 2 215 1.6 8.0 0.00 0.00 0.00 89 1007.3
20260508104005 2 215 3.2 8.0 0.00 0.00 0.00 89 1013.8
20260508103505 2 227 6.4 8.0 0.00 0.00 0.00 90 1013.8
20260508103006 2 200 4.8 11.3 0.00 0.00 0.00 90 1013.8
20260508102505 2 208 8.0 11.3 0.00 0.00 0.00 90 1014.0
20260508102006 2 221 6.4 9.7 0.00 0.00 0.00 90 1014.0
20260508101505 2 219 4.8 8.0 0.00 0.00 0.00 90 1013.9
20260508101005 2 144 1.6 4.8 0.00 0.00 0.00 90 1013.9
20260508100506 2 144 3.2 4.8 0.00 0.00 0.00 89 1013.9
20260508100004 2 144 1.6 4.8 0.00 0.00 0.00 89 1007.8
20260508095506 2 144 1.6 3.2 0.00 0.00 0.00 87 1014.1
20260508095007 2 144 0.0 0.0 0.00 0.00 0.00 88 1014.1
20260508094507 2 144 0.0 0.0 0.00 0.00 0.00 89 1014.0
20260508094504 2 144 0.0 0.0 0.00 0.00 0.00 89 1007.8
20260508094007 2 144 247.8 1054.1 5.13 0.00 0.00 89
20260508093507 2 144 0.0 0.0 0.00 0.00 0.00 88 1014.2
20260508093006 2 144 0.0 1.6 0.00 0.00 0.00 88 1014.2
20260508093003 2 144 0.0 1.6 0.00 0.00 0.00 88 1008.0
20260508092505 2 144 0.0 6.4 0.00 0.00 0.00 86 1014.2
20260508092006 3 144 3.2 6.4 0.00 0.00 0.00 86 1014.2
20260508091505 3 144 1.6 4.8 0.00 0.00 0.00 85 1014.2
20260508091503 3 144 1.6 4.8 0.00 0.00 0.00 85 1008.0
20260508091007 3 144 0.0 0.0 0.00 0.00 0.00 83 1014.2
20260508090505 3 144 0.0 1.6 0.00 0.00 0.00 84 1014.2
20260508090009 4 144 1.6 6.4 0.00 0.00 0.00 86 1014.2
20260508085504 3 144 4.8 6.4 0.00 0.00 0.00 87 1014.2
20260508085006 3 144 1.6 3.2 0.00 0.00 0.00 87 1014.4
20260508084505 3 144 0.0 0.0 0.00 0.00 0.00 85 1014.4
20260508084006 3 144 0.0 0.0 0.00 0.00 0.00 83 1014.5
20260508083506 3 144 0.0 3.2 0.00 0.00 0.00 83 1014.5
20260508083006 4 144 0.0 4.8 0.00 0.00 0.00 83 1008.1
20260508082505 4 144 3.2 6.4 0.00 0.00 0.00 84 1014.2
20260508082006 4 144 3.2 6.4 0.00 0.00 0.00 83 1014.2
20260508081505 5 144 3.2 6.4 0.00 0.00 0.00 83 1014.3
20260508081503 5 144 3.2 6.4 0.00 0.00 0.00 83 1008.1
20260508081007 5 144 4.8 6.4 0.00 0.00 0.00 83 1014.4
20260508080505 5 144 1.6 4.8 0.00 0.00 0.00 80 1014.5
20260508080010 5 144 0.0 4.8 0.00 0.00 0.00 78 1008.4
20260508080008 5 144 0.0 4.8 0.00 0.00 0.00 78 1014.6
20260508074515 6 144 3.2 9.7 0.00 0.00 0.00 79 1008.4
20260508074007 6 144 6.4 9.7 0.00 0.00 0.00 78 1014.6
20260508073007 6 112 4.8 6.4 0.00 0.00 0.00 77 1014.8
20260508073002 6 112 3.2 6.4 0.00 0.00 0.00 77 1008.8
20260508072505 6 62 3.2 9.7 0.00 0.00 0.00 77 1014.8
20260508072006 6 62 4.8 9.7 0.00 0.00 0.00 77 1014.9
20260508071505 6 59 6.4 9.7 0.00 0.00 0.00 77 1015.0
20260508071006 6 54 6.4 9.7 0.00 0.00 0.00 77 1015.1
20260508070504 6 46 4.8 6.4 0.00 0.00 0.00 78 1015.4
20260508070004 6 24 0.0 6.4 0.00 0.00 0.00 77 1009.6
20260508065505 6 24 4.8 6.4 0.00 0.00 0.00 76 1015.6
20260508065006 7 22 3.2 6.4 0.00 0.00 0.00 73 1015.7
20260508064505 7 134 3.2 4.8 0.00 0.00 0.00 72 1015.1
20260508064503 7 134 3.2 4.8 0.00 0.00 0.00 72 1009.3
20260508064006 7 134 0.0 1.6 0.00 0.00 0.00 71 1014.8
20260508063508 7 134 0.0 3.2 0.00 0.00 0.00 71 1014.8
20260508063006 7 134 1.6 4.8 0.00 0.00 0.00 72 1014.8
20260508063002 7 134 0.0 4.8 0.00 0.00 0.00 72 1009.1
20260508062506 7 134 3.2 4.8 0.00 0.00 0.00 72 1014.7
20260508062005 7 134 1.6 6.4 0.00 0.00 0.00 71 1014.7
20260508061506 7 134 3.2 6.4 0.00 0.00 0.00 71 1014.6
20260508061503 7 134 3.2 6.4 0.00 0.00 0.00 71 1009.0
20260508061006 7 134 3.2 8.0 0.00 0.00 0.00 71 1014.6
20260508060004 8 136 3.2 11.3 0.00 0.00 0.00 70 1009.0
20260508055503 8 136 6.4 11.3 0.00 0.00 0.00 69 1014.8
20260508055004 8 82 4.8 8.0 0.00 0.00 0.00 68 1014.8
20260508054504 8 44 3.2 8.0 0.00 0.00 0.00 69 1015.0
20260508054005 8 44 4.8 12.9 0.00 0.00 0.00 68 1015.0
20260508053005 8 15 4.8 9.7 0.00 0.00 0.00 67 1015.4
20260508053002 8 15 4.8 9.7 0.00 0.00 0.00 67 1009.9
20260508052504 8 15 8.0 9.7 0.00 0.00 0.00 66 1015.1
20260508052004 8 92 1.6 6.4 0.00 0.00 0.00 64 1014.8
20260508051504 8 92 0.0 4.8 0.00 0.00 0.00 63 1014.6
20260508051502 8 92 0.0 4.8 0.00 0.00 0.00 63 1009.3
20260508051005 9 92 3.2 4.8 0.00 0.00 0.00 62 1014.4
20260508050504 9 92 0.0 6.4 0.00 0.00 0.00 61 1014.5
20260508050006 9 92 6.4 6.4 0.00 0.00 0.00 60 1014.5
20260508050002 9 92 4.8 6.4 0.00 0.00 0.00 60 1009.3
20260508045504 10 92 0.0 6.4 0.00 0.00 0.00 59 1014.4
20260508045005 10 92 3.2 14.5 0.00 0.00 0.00 59 1014.4
20260508044504 10 100 8.0 14.5 0.00 0.00 0.00 59 1014.4
20260508044502 10 100 6.4 14.5 0.00 0.00 0.00 59 1009.3
20260508043006 10 109 0.0 0.0 0.00 0.00 0.00 57 1014.5
20260508043002 10 109 0.0 0.0 0.00 0.00 0.00 57 1009.5
20260508042004 10 109 0.0 3.2 0.00 0.00 0.00 57 1014.3
20260508041505 10 109 1.6 4.8 0.00 0.00 0.00 55 1014.2
20260508041503 10 109 0.0 4.8 0.00 0.00 0.00 55 1009.3
20260508041004 10 109 3.2 4.8 0.00 0.00 0.00 53 1014.2
20260508040504 10 109 3.2 4.8 0.00 0.00 0.00 55 1014.2
20260508040006 10 109 0.0 4.8 0.00 0.00 0.00 55 1014.3
20260508040003 10 109 0.0 4.8 0.00 0.00 0.00 55 1009.5
20260508035505 10 109 0.0 11.3 0.00 0.00 0.00 56 1014.3
20260508034501 10 328 1.6 3.2 0.00 0.00 0.00 53 1009.8
20260508034004 10 328 0.0 3.2 0.00 0.00 0.00 54 1014.6
20260508033504 11 328 0.0 3.2 0.00 0.00 0.00 54 1014.7
20260508033057 11 328 1.6 3.2 0.00 0.00 0.00 53 1010.0
20260508033002 11 11 1.6 3.2 0.00 0.00 0.00 53 1014.7
20260508032504 11 11 0.0 6.4 0.00 0.00 0.00 51 1014.4
20260508031502 11 329 1.6 19.3 0.00 0.00 0.00 50 1009.6
20260508031005 11 15 8.0 24.1 0.00 0.00 0.00 49 1014.1
20260508030504 11 19 9.7 24.1 0.00 0.00 0.00 49 1014.1
20260508030006 11 43 14.5 22.5 0.00 0.00 0.00 50 1013.9
20260508030003 11 43 14.5 22.5 0.00 0.00 0.00 50 1009.3
20260508025504 11 43 12.9 20.9 0.00 0.00 0.00 50 1013.9
20260508025005 11 9 9.7 20.9 0.00 0.00 0.00 51 1014.0
20260508024504 11 26 12.9 29.0 0.00 0.00 0.00 52 1013.9
20260508024502 11 26 12.9 29.0 0.00 0.00 0.00 52 1009.3
20260508024004 11 13 17.7 29.0 0.00 0.00 0.00 51 1014.0
20260508023500 12 355 6.4 16.1 0.00 0.00 0.00 51 1013.9
20260508023004 12 305 1.6 3.2 0.00 0.00 0.00 52 1013.7
20260508023002 12 305 1.6 3.2 0.00 0.00 0.00 52 1009.2
20260508022504 12 305 0.0 8.0 0.00 0.00 0.00 49 1013.3
20260508022004 12 305 3.2 8.0 0.00 0.00 0.00 57 1013.3
20260508021504 12 305 0.0 4.8 0.00 0.00 0.00 53 1013.2
20260508021502 12 305 0.0 4.8 0.00 0.00 0.00 53 1008.9
20260508020500 12 305 1.6 4.8 0.00 0.00 0.00 55 1013.1
20260508020006 13 305 0.0 3.2 0.00 0.00 0.00 45 1012.9
20260508020003 13 305 0.0 3.2 0.00 0.00 0.00 45 1008.8
20260508014504 13 305 0.0 0.0 0.00 0.00 0.00 39 1012.7
20260508014502 13 305 0.0 0.0 0.00 0.00 0.00 39 1008.8
20260508014006 13 305 0.0 0.0 0.00 0.00 0.00 36 1012.7
20260508013503 14 305 0.0 0.0 0.00 0.00 0.00 36 1012.6
20260508013006 14 305 0.0 0.0 0.00 0.00 0.00 37 1012.5
20260508013001 14 305 0.0 0.0 0.00 0.00 0.00 37 1008.6
20260508012503 14 305 0.0 0.0 0.00 0.00 0.00 36 1012.5
20260508012004 14 305 0.0 0.0 0.00 0.00 0.00 37 1012.4
20260508011508 14 305 0.0 0.0 0.00 0.00 0.00 44 1008.7
20260508010504 14 305 0.0 0.0 0.00 0.00 0.00 38 1012.5
20260508010002 14 305 0.0 1.6 0.00 0.00 0.00 40 1008.8
20260508005504 15 305 0.0 3.2 0.00 0.00 0.00 40 1012.4
20260508005005 15 305 0.0 6.4 0.00 0.00 0.00 36 1012.4
20260508004504 15 305 4.8 11.3 0.00 0.00 0.00 34 1012.3
20260508004502 15 305 3.2 11.3 0.00 0.00 0.00 34 1008.8
20260508004008 15 298 6.4 14.5 0.00 0.00 0.00 32 1012.3
20260508003504 15 293 8.0 14.5 0.00 0.00 0.00 33 1012.3
20260508003001 16 290 8.0 17.7 0.00 0.00 0.00 29 1008.9
20260508002004 16 318 8.0 16.1 0.00 0.00 0.00 29 1012.3
20260508001504 16 257 4.8 16.1 0.00 0.00 0.00 30 1012.4
20260508001501 16 257 3.2 16.1 0.00 0.00 0.00 30 1009.1
20260508001004 16 239 9.7 17.7 0.00 0.00 0.00 30 1012.5
20260508000504 17 288 8.0 17.7 0.00 0.00 0.00 29 1012.4
20260508000006 16 286 8.0 19.3 0.00 0.00 0.00 29 1012.4
20260508000003 16 286 6.4 19.3 0.00 0.00 0.00 29 1009.3
20260507235004 17 252 8.0 17.7 0.00 0.00 0.00 29 1012.4
20260507234504 16 298 12.9 19.3 0.00 0.00 0.00 29 1012.4
20260507234502 16 298 11.3 19.3 0.00 0.00 0.00 29 1009.4
20260507233504 17 294 6.4 24.1 0.00 0.00 0.00 29 1012.5
20260507233005 17 303 9.7 20.9 0.00 0.00 0.00 29 1009.6
20260507232503 16 300 11.3 22.5 0.00 0.00 0.00 30 1012.5
20260507231504 16 294 14.5 22.5 0.00 0.00 0.00 32 1012.5
20260507231502 16 294 12.9 22.5 0.00 0.00 0.00 32 1009.7
20260507231004 15 294 9.7 12.9 0.00 0.00 0.00 34 1012.6
20260507230504 15 316 6.4 14.5 0.00 0.00 0.00 33 1012.6
20260507230005 15 292 6.4 14.5 0.00 0.00 0.00 32 1012.6
20260507230003 15 292 4.8 14.5 0.00 0.00 0.00 32 1010.0
20260507225504 16 289 4.8 17.7 0.00 0.00 0.00 32 1012.5
20260507225005 16 262 6.4 25.7 0.00 0.00 0.00 31 1012.6
20260507224504 17 284 12.9 29.0 0.00 0.00 0.00 31 1012.6
20260507224501 17 284 11.3 29.0 0.00 0.00 0.00 31 1010.0
20260507223504 17 294 16.1 25.7 0.00 0.00 0.00 30 1012.6
20260507223004 17 281 17.7 25.7 0.00 0.00 0.00 29 1012.6
20260507223002 17 281 16.1 25.7 0.00 0.00 0.00 29 1010.2
20260507222005 17 293 11.3 29.0 0.00 0.00 0.00 32 1012.7
20260507221503 17 289 17.7 29.0 0.00 0.00 0.00 31 1012.7
20260507221501 17 289 17.7 29.0 0.00 0.00 0.00 31 1010.4
20260507220503 16 289 17.7 29.0 0.00 0.00 0.00 32 1013.0
20260507220009 17 316 16.1 25.7 0.00 0.00 0.00 30 1013.0
20260507220002 17 316 14.5 25.7 0.00 0.00 0.00 30 1010.9
20260507215504 17 304 14.5 30.6 0.00 0.00 0.00 33 1013.0
20260507215005 16 290 16.1 32.2 0.00 0.00 0.00 35 1013.2